Burlington, WA
on Tuesday, November 13, 2012

Tuesday
Previous Day Next Day
Daily Summary
 ActualAverage (KBLI)Record (KBLI)
Temperature
Mean Temperature °F / °C 44°F / 7°C  
Max Temperature 50°F / 10°C 50°F / 10°C 61°F / 16°C (1975)
Min Temperature 44°F / 7°C 37°F / 3°C 10°F / -12°C (1955)
Degree Days
Heating Degree Days 18 21  
Month to date heating degree days 258  
Cooling Degree Days 0 0  
Month to date cooling degree days 0  
Year to date cooling degree days 42  
Moisture
Dew Point 47°F / 8°C   
Average Humidity 100    
Maximum Humidity 100    
Minimum Humidity 100    
Precipitation
Precipitation 0.34 in / 8.64 cm 0.20 in / 5.08 cm 0.94 in / 2.39 cm (1998)
Month to date precipitation 2.53  
Year to date precipitation 28.34  
Wind
Wind Speed 5 mph / 8 km/h   
Max Wind Speed 12 mph / 19 km/h   
Max Gust Speed mph / km/h   
Visibility 7 miles / 11 kilometers   
Events     

Key: T is trace of precipitation, MM is missing value
Source: NWS Daily Summary
Time(PST)TemperatureDew PointHumidity Pressure Visibility Wind DirectionWind SpeedGust SpeedPrecipitationEvents Conditions
12:15 AM 50.0°F / 10.0°C 50.0°F / 10.0°C 100% 30.21 in / 1022.9 hPa 10.0 miles / 16.1 kilometers SSE 3.5 mph / 5.6 km/h - 0.00 in / 0.0 cm   Overcast
12:35 AM 50.0°F / 10.0°C 50.0°F / 10.0°C 100% 30.21 in / 1022.9 hPa 10.0 miles / 16.1 kilometers SE 4.6 mph / 7.4 km/h - 0.00 in / 0.0 cm   Overcast
1:15 AM 50.0°F / 10.0°C 50.0°F / 10.0°C 100% 30.21 in / 1022.9 hPa 7.0 miles / 11.3 kilometers SSE 3.5 mph / 5.6 km/h - 0.00 in / 0.0 cm   Overcast
1:35 AM 48.2°F / 9.0°C 48.2°F / 9.0°C 100% 30.21 in / 1022.9 hPa 9.0 miles / 14.5 kilometers SE 5.8 mph / 9.3 km/h - 0.00 in / 0.0 cm   Overcast
1:55 AM 48.2°F / 9.0°C 48.2°F / 9.0°C 100% 30.21 in / 1022.9 hPa 7.0 miles / 11.3 kilometers SE 5.8 mph / 9.3 km/h - 0.01 in / 0.3 cm   Overcast
2:15 AM 48.2°F / 9.0°C 48.2°F / 9.0°C 100% 30.21 in / 1022.9 hPa 7.0 miles / 11.3 kilometers SE 6.9 mph / 11.1 km/h - 0.01 in / 0.3 cm   Overcast
2:35 AM 48.2°F / 9.0°C 48.2°F / 9.0°C 100% 30.21 in / 1022.9 hPa 5.0 miles / 8.0 kilometers SSE 3.5 mph / 5.6 km/h - 0.02 in / 0.5 cm   Overcast
2:55 AM 48.2°F / 9.0°C 48.2°F / 9.0°C 100% 30.21 in / 1022.9 hPa 5.0 miles / 8.0 kilometers ESE 5.8 mph / 9.3 km/h - 0.04 in / 1.0 cm   Overcast
3:15 AM 48.2°F / 9.0°C 48.2°F / 9.0°C 100% 30.21 in / 1022.9 hPa 5.0 miles / 8.0 kilometers Calm Calm - 0.02 in / 0.5 cm   Overcast
3:35 AM 48.2°F / 9.0°C 48.2°F / 9.0°C 100% 30.21 in / 1022.9 hPa 5.0 miles / 8.0 kilometers NNE 3.5 mph / 5.6 km/h - 0.04 in / 1.0 cm   Overcast
3:55 AM 46.4°F / 8.0°C 46.4°F / 8.0°C 100% 30.21 in / 1022.9 hPa 5.0 miles / 8.0 kilometers NE 6.9 mph / 11.1 km/h - 0.08 in / 2.0 cm   Overcast
4:15 AM 46.4°F / 8.0°C 46.4°F / 8.0°C 100% 30.20 in / 1022.6 hPa 5.0 miles / 8.0 kilometers ENE 6.9 mph / 11.1 km/h - 0.01 in / 0.3 cm   Overcast
4:35 AM 46.4°F / 8.0°C 46.4°F / 8.0°C 100% 30.19 in / 1022.2 hPa 10.0 miles / 16.1 kilometers East 8.1 mph / 13.0 km/h - 0.01 in / 0.3 cm   Overcast
4:55 AM 46.4°F / 8.0°C 46.4°F / 8.0°C 100% 30.19 in / 1022.2 hPa 8.0 miles / 12.9 kilometers ESE 6.9 mph / 11.1 km/h - 0.01 in / 0.3 cm   Overcast
5:15 AM 46.4°F / 8.0°C 46.4°F / 8.0°C 100% 30.19 in / 1022.2 hPa 10.0 miles / 16.1 kilometers East 6.9 mph / 11.1 km/h - 0.00 in / 0.0 cm   Overcast
5:35 AM 46.4°F / 8.0°C 46.4°F / 8.0°C 100% 30.20 in / 1022.6 hPa 10.0 miles / 16.1 kilometers ESE 5.8 mph / 9.3 km/h - 0.00 in / 0.0 cm   Overcast
5:55 AM 46.4°F / 8.0°C 46.4°F / 8.0°C 100% 30.20 in / 1022.6 hPa 10.0 miles / 16.1 kilometers East 6.9 mph / 11.1 km/h - 0.00 in / 0.0 cm   Overcast
6:15 AM 46.4°F / 8.0°C 46.4°F / 8.0°C 100% 30.20 in / 1022.6 hPa 2.5 miles / 4.0 kilometers ENE 6.9 mph / 11.1 km/h - 0.00 in / 0.0 cm   Overcast
6:35 AM 46.4°F / 8.0°C 46.4°F / 8.0°C 100% 30.20 in / 1022.6 hPa 8.0 miles / 12.9 kilometers ENE 9.2 mph / 14.8 km/h - 0.00 in / 0.0 cm   Overcast
6:55 AM 46.4°F / 8.0°C 46.4°F / 8.0°C 100% 30.20 in / 1022.6 hPa 7.0 miles / 11.3 kilometers ENE 8.1 mph / 13.0 km/h - 0.00 in / 0.0 cm   Overcast
7:15 AM 46.4°F / 8.0°C 46.4°F / 8.0°C 100% 30.20 in / 1022.6 hPa 6.0 miles / 9.7 kilometers ENE 9.2 mph / 14.8 km/h - 0.01 in / 0.3 cm   Overcast
7:35 AM 46.4°F / 8.0°C 46.4°F / 8.0°C 100% 30.20 in / 1022.6 hPa 9.0 miles / 14.5 kilometers ENE 10.4 mph / 16.7 km/h - 0.01 in / 0.3 cm   Overcast
7:55 AM 46.4°F / 8.0°C 46.4°F / 8.0°C 100% 30.20 in / 1022.6 hPa 5.0 miles / 8.0 kilometers ENE 6.9 mph / 11.1 km/h - 0.01 in / 0.3 cm   Overcast
8:15 AM 44.6°F / 7.0°C 44.6°F / 7.0°C 100% 30.20 in / 1022.6 hPa 2.5 miles / 4.0 kilometers ENE 9.2 mph / 14.8 km/h - 0.03 in / 0.8 cm   Overcast
8:35 AM 44.6°F / 7.0°C 44.6°F / 7.0°C 100% 30.20 in / 1022.6 hPa 5.0 miles / 8.0 kilometers East 11.5 mph / 18.5 km/h - 0.04 in / 1.0 cm   Overcast
8:55 AM 46.4°F / 8.0°C 46.4°F / 8.0°C 100% 30.20 in / 1022.6 hPa 5.0 miles / 8.0 kilometers East 6.9 mph / 11.1 km/h - 0.04 in / 1.0 cm   Overcast
9:15 AM 46.4°F / 8.0°C 46.4°F / 8.0°C 100% 30.20 in / 1022.6 hPa 5.0 miles / 8.0 kilometers East 5.8 mph / 9.3 km/h - 0.00 in / 0.0 cm   Overcast
9:35 AM 46.4°F / 8.0°C 46.4°F / 8.0°C 100% 30.21 in / 1022.9 hPa 6.0 miles / 9.7 kilometers East 6.9 mph / 11.1 km/h - 0.00 in / 0.0 cm   Overcast
9:55 AM 46.4°F / 8.0°C 46.4°F / 8.0°C 100% 30.21 in / 1022.9 hPa 9.0 miles / 14.5 kilometers ENE 5.8 mph / 9.3 km/h - 0.00 in / 0.0 cm   Overcast
10:15 AM 46.4°F / 8.0°C 46.4°F / 8.0°C 100% 30.21 in / 1022.9 hPa 9.0 miles / 14.5 kilometers ENE 4.6 mph / 7.4 km/h - 0.00 in / 0.0 cm   Overcast
10:35 AM 46.4°F / 8.0°C 46.4°F / 8.0°C 100% 30.21 in / 1022.9 hPa 9.0 miles / 14.5 kilometers East 9.2 mph / 14.8 km/h - 0.00 in / 0.0 cm   Overcast
10:55 AM 46.4°F / 8.0°C 46.4°F / 8.0°C 100% 30.21 in / 1022.9 hPa 5.0 miles / 8.0 kilometers East 5.8 mph / 9.3 km/h - 0.00 in / 0.0 cm   Overcast
11:15 AM 48.2°F / 9.0°C 48.2°F / 9.0°C 100% 30.20 in / 1022.6 hPa 6.0 miles / 9.7 kilometers East 6.9 mph / 11.1 km/h - 0.00 in / 0.0 cm   Overcast
11:35 AM 48.2°F / 9.0°C 48.2°F / 9.0°C 100% 30.20 in / 1022.6 hPa 2.5 miles / 4.0 kilometers East 6.9 mph / 11.1 km/h - 0.00 in / 0.0 cm   Overcast
11:55 AM 48.2°F / 9.0°C 48.2°F / 9.0°C 100% 30.19 in / 1022.2 hPa 3.0 miles / 4.8 kilometers East 8.1 mph / 13.0 km/h - 0.00 in / 0.0 cm   Overcast
12:15 PM 48.2°F / 9.0°C 48.2°F / 9.0°C 100% 30.18 in / 1021.9 hPa 5.0 miles / 8.0 kilometers East 6.9 mph / 11.1 km/h - 0.00 in / 0.0 cm   Overcast
12:35 PM 48.2°F / 9.0°C 48.2°F / 9.0°C 100% 30.18 in / 1021.9 hPa 9.0 miles / 14.5 kilometers ENE 6.9 mph / 11.1 km/h - 0.00 in / 0.0 cm   Overcast
12:55 PM 48.2°F / 9.0°C 48.2°F / 9.0°C 100% 30.17 in / 1021.6 hPa 9.0 miles / 14.5 kilometers ENE 8.1 mph / 13.0 km/h - 0.00 in / 0.0 cm   Overcast
1:15 PM 48.2°F / 9.0°C 48.2°F / 9.0°C 100% 30.17 in / 1021.6 hPa 10.0 miles / 16.1 kilometers East 5.8 mph / 9.3 km/h - 0.00 in / 0.0 cm   Overcast
1:35 PM 48.2°F / 9.0°C 48.2°F / 9.0°C 100% 30.17 in / 1021.6 hPa 10.0 miles / 16.1 kilometers ESE 4.6 mph / 7.4 km/h - 0.00 in / 0.0 cm   Overcast
1:55 PM 48.2°F / 9.0°C 48.2°F / 9.0°C 100% 30.17 in / 1021.6 hPa 10.0 miles / 16.1 kilometers East 4.6 mph / 7.4 km/h - 0.00 in / 0.0 cm   Overcast
2:15 PM 48.2°F / 9.0°C 48.2°F / 9.0°C 100% 30.16 in / 1021.2 hPa 8.0 miles / 12.9 kilometers ENE 4.6 mph / 7.4 km/h - 0.00 in / 0.0 cm   Overcast
2:35 PM 48.2°F / 9.0°C 48.2°F / 9.0°C 100% 30.16 in / 1021.2 hPa 9.0 miles / 14.5 kilometers East 3.5 mph / 5.6 km/h - 0.00 in / 0.0 cm   Overcast
2:55 PM 48.2°F / 9.0°C 48.2°F / 9.0°C 100% 30.16 in / 1021.2 hPa 5.0 miles / 8.0 kilometers ENE 3.5 mph / 5.6 km/h - 0.01 in / 0.3 cm   Overcast
3:15 PM 48.2°F / 9.0°C 48.2°F / 9.0°C 100% 30.16 in / 1021.2 hPa 4.0 miles / 6.4 kilometers ENE 3.5 mph / 5.6 km/h - 0.01 in / 0.3 cm   Overcast
3:35 PM 48.2°F / 9.0°C 48.2°F / 9.0°C 100% 30.16 in / 1021.2 hPa 3.0 miles / 4.8 kilometers ENE 4.6 mph / 7.4 km/h - 0.02 in / 0.5 cm   Overcast
4:15 PM 46.4°F / 8.0°C 46.4°F / 8.0°C 100% 30.15 in / 1020.9 hPa 5.0 miles / 8.0 kilometers NE 5.8 mph / 9.3 km/h - 0.01 in / 0.3 cm   Overcast
4:35 PM 46.4°F / 8.0°C 46.4°F / 8.0°C 100% 30.15 in / 1020.9 hPa 7.0 miles / 11.3 kilometers NE 6.9 mph / 11.1 km/h - 0.01 in / 0.3 cm   Overcast
4:55 PM 46.4°F / 8.0°C 46.4°F / 8.0°C 100% 30.15 in / 1020.9 hPa 9.0 miles / 14.5 kilometers NE 6.9 mph / 11.1 km/h - 0.02 in / 0.5 cm   Overcast
5:15 PM 46.4°F / 8.0°C 46.4°F / 8.0°C 100% 30.15 in / 1020.9 hPa 5.0 miles / 8.0 kilometers NE 5.8 mph / 9.3 km/h - 0.01 in / 0.3 cm   Overcast
5:35 PM 46.4°F / 8.0°C 46.4°F / 8.0°C 100% 30.15 in / 1020.9 hPa 4.0 miles / 6.4 kilometers NE 3.5 mph / 5.6 km/h - 0.02 in / 0.5 cm   Overcast
5:55 PM 46.4°F / 8.0°C 46.4°F / 8.0°C 100% 30.14 in / 1020.5 hPa 3.0 miles / 4.8 kilometers NE 5.8 mph / 9.3 km/h - 0.06 in / 1.5 cm   Overcast
6:15 PM 46.4°F / 8.0°C 46.4°F / 8.0°C 100% 30.14 in / 1020.5 hPa 5.0 miles / 8.0 kilometers ENE 8.1 mph / 13.0 km/h - 0.01 in / 0.3 cm   Overcast
6:35 PM 46.4°F / 8.0°C 46.4°F / 8.0°C 100% 30.14 in / 1020.5 hPa 3.0 miles / 4.8 kilometers ENE 6.9 mph / 11.1 km/h - 0.01 in / 0.3 cm   Overcast
6:55 PM 46.4°F / 8.0°C 46.4°F / 8.0°C 100% 30.14 in / 1020.5 hPa 4.0 miles / 6.4 kilometers ENE 8.1 mph / 13.0 km/h - 0.02 in / 0.5 cm   Overcast
7:15 PM 46.4°F / 8.0°C 46.4°F / 8.0°C 100% 30.14 in / 1020.5 hPa 4.0 miles / 6.4 kilometers ENE 6.9 mph / 11.1 km/h - 0.01 in / 0.3 cm   Overcast
7:35 PM 46.4°F / 8.0°C 46.4°F / 8.0°C 100% 30.15 in / 1020.9 hPa 9.0 miles / 14.5 kilometers ESE 3.5 mph / 5.6 km/h - 0.01 in / 0.3 cm   Overcast
7:55 PM 46.4°F / 8.0°C 46.4°F / 8.0°C 100% 30.15 in / 1020.9 hPa 10.0 miles / 16.1 kilometers East 3.5 mph / 5.6 km/h - 0.01 in / 0.3 cm   Overcast
8:15 PM 46.4°F / 8.0°C 46.4°F / 8.0°C 100% 30.15 in / 1020.9 hPa 10.0 miles / 16.1 kilometers East 4.6 mph / 7.4 km/h - 0.00 in / 0.0 cm   Overcast
8:35 PM 46.4°F / 8.0°C 46.4°F / 8.0°C 100% 30.15 in / 1020.9 hPa 8.0 miles / 12.9 kilometers East 3.5 mph / 5.6 km/h - 0.00 in / 0.0 cm   Overcast
9:15 PM 46.4°F / 8.0°C 46.4°F / 8.0°C 100% 30.15 in / 1020.9 hPa 10.0 miles / 16.1 kilometers ENE 5.8 mph / 9.3 km/h - 0.01 in / 0.3 cm   Overcast
9:35 PM 46.4°F / 8.0°C 46.4°F / 8.0°C 100% 30.16 in / 1021.2 hPa 10.0 miles / 16.1 kilometers Calm Calm - 0.01 in / 0.3 cm   Overcast
9:55 PM 46.4°F / 8.0°C 46.4°F / 8.0°C 100% 30.16 in / 1021.2 hPa 10.0 miles / 16.1 kilometers Calm Calm - 0.01 in / 0.3 cm   Overcast
10:15 PM 46.4°F / 8.0°C 46.4°F / 8.0°C 100% 30.16 in / 1021.2 hPa 7.0 miles / 11.3 kilometers ENE 3.5 mph / 5.6 km/h - 0.00 in / 0.0 cm   Overcast
10:35 PM 46.4°F / 8.0°C 46.4°F / 8.0°C 100% 30.17 in / 1021.6 hPa 10.0 miles / 16.1 kilometers NE 3.5 mph / 5.6 km/h - 0.00 in / 0.0 cm   Overcast
10:55 PM 46.4°F / 8.0°C 46.4°F / 8.0°C 100% 30.17 in / 1021.6 hPa 10.0 miles / 16.1 kilometers NNE 3.5 mph / 5.6 km/h - 0.00 in / 0.0 cm   Overcast
11:15 PM 46.4°F / 8.0°C 46.4°F / 8.0°C 100% 30.17 in / 1021.6 hPa 9.0 miles / 14.5 kilometers ENE 3.5 mph / 5.6 km/h - 0.00 in / 0.0 cm   Overcast
11:35 PM 46.4°F / 8.0°C 46.4°F / 8.0°C 100% 30.18 in / 1021.9 hPa 10.0 miles / 16.1 kilometers NE 3.5 mph / 5.6 km/h - 0.00 in / 0.0 cm   Overcast
11:55 PM 46.4°F / 8.0°C 46.4°F / 8.0°C 100% 30.18 in / 1021.9 hPa 9.0 miles / 14.5 kilometers Calm Calm - 0.00 in / 0.0 cm   Overcast
Moon Phase
Nov. 13 Nov. 13 Nov. 20 Nov. 28 Dec. 06
Sunrise:07:15 AM (PST) Moon Rise:07:01 AM (PST)11/13
Sunset:04:32 PM (PST) Moon Set:04:27 PM (PST)11/13

Copyright © 2014 The Weather Underground, Inc.